Helicity
99 113 120 46 63 95 116 93 66 66 77 95 103 121 110 102 93 101 48 39 55 104 98 35 46 85 133 158 163 159 141 136 124 108 130 106 79 68 60 20 -25 -31 36
59 103 83 44 89 121 130 107 87 82 88 92 97 115 130 89 76 81 131 124 130 82 65 97 79 32 57 114 165 163 154 143 150 144 124 133 99 81 80 79 44 31 42
66 97 51 31 66 89 83 81 81 88 96 97 96 83 83 107 113 121 113 118 156 154 120 130 63 68 62 29 86 167 163 166 150 160 155 144 127 110 90 111 101 91 79
95 118 81 91 78 95 90 84 78 78 76 75 81 90 89 97 134 126 128 107 138 132 188 217 236 225 123 122 46 84 156 162 167 153 167 159 150 138 126 117 135 125 112
76 88 87 88 87 96 85 76 75 77 67 59 67 67 86 106 89 100 106 145 113 120 89 151 186 183 194 148 111 83 59 113 140 159 158 172 163 151 154 150 143 137 134
76 62 81 87 80 63 47 33 55 58 53 47 50 39 83 93 68 57 78 51 80 40 53 64 69 95 140 170 176 139 121 48 111 137 162 173 170 170 167 174 164 139 134
57 75 66 75 80 63 35 30 53 83 73 54 10 30 -16 58 52 90 71 47 16 35 5 -0 -15 8 27 184 156 207 92 400 207 16 168 170 177 182 173 187 183 154 135
60 76 62 44 67 53 45 12 36 36 50 56 21 -38 -47 -51 69 53 73 -0 44 -26 25 48 44 16 -14 -10 103 148 153 21 53 94 156 155 184 188 194 177 193 172 167
140 103 78 89 78 47 32 19 44 50 30 14 35 -29 -56 -22 -9 -17 -14 12 20 -1 31 22 43 71 45 -2 66 69 120 161 71 90 175 103 214 193 196 194 183 196 184
108 88 115 87 62 35 31 42 70 67 57 48 31 54 59 46 -13 -81 -12 -6 -1 -8 5 -11 -17 22 94 93 90 136 138 200 121 263 181 -13 105 215 200 201 190 194 187
141 115 94 71 66 85 61 58 64 62 51 38 32 38 42 50 45 46 -33 -33 -6 10 7 -1 -0 -12 6 58 111 82 139 217 215 28 170 207 197 155 201 200 203 196 200
124 102 79 51 62 88 79 56 61 58 52 55 54 50 36 17 18 29 32 12 -10 15 6 -1 -17 -19 -18 9 87 145 124 150 216 127 43 158 165 189 93 187 198 195 199
112 104 78 61 53 102 90 72 68 79 83 70 65 58 58 55 57 52 42 26 3 13 -13 -13 -18 -31 -11 2 10 133 153 153 149 171 202 140 208 130 278 90 190 195 199
126 115 84 66 82 103 89 73 66 71 69 77 78 59 59 54 51 45 36 18 14 11 7 -0 -21 -45 -39 20 56 88 36 117 128 136 230 251 182 180 175 -25 80 197 204
133 136 106 106 106 86 87 93 84 74 87 62 66 66 67 66 67 59 50 47 19 -16 14 -2 -30 -4 -33 -57 -3 18 6 61 129 177 163 217 279 277 246 131 98 205 222
144 137 136 120 86 86 88 80 79 98 72 68 61 64 72 86 84 80 77 63 47 34 8 -10 -38 -15 -35 -19 -28 -30 3 27 38 138 137 157 254 229 175 173 184 151 279
140 140 139 97 62 63 64 82 88 87 60 51 58 63 72 80 84 75 77 83 62 50 6 -29 -44 -25 -22 -5 -36 -18 -34 -10 -50 62 169 212 227 263 222 95 150 90 129
125 128 105 90 69 64 67 82 80 57 33 28 44 69 83 99 92 81 98 73 73 43 19 -34 -39 -70 -42 -33 -1 -45 -21 8 -18 -0 88 187 246 213 257 226 124 167 52
111 100 92 103 64 40 80 90 56 30 19 28 60 79 96 87 82 103 95 90 69 63 34 7 -48 -75 -59 -60 -15 -14 -46 -13 -15 -7 70 188 276 289 284 279 115 96 151
103 99 113 112 47 65 100 70 35 11 2 23 50 74 80 84 90 89 83 76 73 68 40 8 -21 -71 -88 -38 -70 -40 -75 -69 -14 -30 70 166 236 305 300 346 187 118 177
111 105 130 88 71 72 88 57 28 -3 -18 27 49 65 78 89 111 124 122 87 68 63 61 32 -20 -63 -96 -90 -56 -14 -40 -74 -27 -8 4 141 129 173 171 332 226 113 122
123 130 137 114 98 110 127 104 71 -0 14 42 46 68 87 104 121 122 115 86 83 79 48 36 3 -55 -56 -44 -42 -28 1 -80 -73 -50 -11 219 154 172 161 202 272 200 154
133 137 138 119 108 128 156 130 121 26 43 58 72 86 103 115 116 102 91 77 77 60 62 46 -0 -23 -39 -27 -21 -10 -5 -30 -35 25 62 149 199 197 113 124 332 188 244
141 133 138 136 141 167 182 149 130 52 67 76 92 105 111 110 88 99 103 132 65 72 57 30 20 -11 -33 -40 -29 -19 -12 -14 -43 -11 48 85 126 199 175 64 222 196 264
159 153 145 155 168 168 192 153 123 74 74 83 100 109 102 96 72 74 106 82 62 53 25 17 37 41 28 24 22 3 -4 -32 -68 -23 61 3 -68 122 172 105 121 191 266
170 155 149 147 193 130 147 148 130 82 81 88 94 99 83 92 76 87 95 76 74 38 -1 -6 9 44 48 46 89 90 58 14 -40 -51 -12 -17 112 82 42 28 119 209 247
Wind_Speed
60 59 62 61 65 67 69 70 70 71 73 74 74 74 72 70 70 69 64 64 65 68 71 62 37 31 29 22 18 17 15 12 10 8 11 14 18 19 24 28 30 26 16
60 61 62 64 68 69 70 70 72 74 73 75 77 76 74 72 73 73 74 71 70 67 69 76 76 59 41 33 29 24 22 20 17 14 15 18 21 23 25 26 26 31 34
61 63 63 66 69 71 71 72 74 74 75 75 75 76 77 76 76 76 74 71 75 75 74 76 78 79 87 53 38 35 31 28 25 22 20 22 24 26 28 27 29 30 32
64 65 66 69 70 71 72 73 77 78 79 79 80 79 78 78 78 75 70 69 68 63 66 65 71 74 81 82 79 46 43 38 32 30 27 25 29 28 30 28 29 28 29
64 65 67 69 71 71 72 75 77 79 81 80 81 76 77 78 72 66 63 70 66 71 68 75 79 80 82 84 86 103 57 46 43 36 34 32 30 32 30 32 30 30 29
64 64 67 69 72 72 71 75 76 75 75 80 82 77 77 69 66 64 74 71 72 69 75 78 79 78 82 81 84 85 87 74 49 46 43 41 38 37 34 34 34 33 31
62 65 65 69 72 70 70 73 75 78 77 82 79 88 67 70 56 71 76 77 73 74 78 77 78 84 85 90 86 84 82 79 91 63 55 51 47 42 42 37 37 38 36
60 61 64 68 69 66 71 73 75 74 72 78 80 77 79 70 66 95 70 78 75 79 79 86 83 84 89 90 89 90 90 86 89 95 65 59 55 50 47 44 41 42 40
58 62 65 65 68 67 72 74 74 75 75 71 74 70 76 78 103 58 90 69 90 85 89 84 88 88 87 87 89 86 94 98 98 99 81 82 65 58 54 51 48 45 44
59 62 62 65 68 66 68 70 71 72 73 75 71 66 67 76 78 96 76 97 81 91 87 89 88 89 91 88 87 90 92 97 98 95 101 106 106 69 63 58 55 51 48
58 61 61 65 70 70 68 69 71 69 68 68 68 71 72 73 73 81 112 103 95 88 91 88 91 89 88 85 90 87 92 100 105 104 96 97 79 92 73 66 63 59 55
58 60 63 66 68 68 68 68 69 67 65 66 68 71 73 76 81 84 98 108 111 100 94 91 90 88 85 87 86 93 94 99 104 109 110 106 113 91 103 75 72 68 63
58 60 63 67 69 68 62 66 66 67 65 71 72 71 72 76 79 83 91 106 108 108 95 87 87 85 89 85 86 99 105 103 104 109 110 106 103 104 92 100 83 77 71
58 59 62 67 65 64 66 66 64 65 70 69 72 74 74 76 77 81 88 98 115 108 99 97 88 86 89 90 99 101 102 106 107 107 113 115 113 110 109 120 118 89 78
57 59 62 61 61 64 65 68 66 67 66 72 73 69 70 71 73 77 81 84 94 117 115 99 100 95 95 97 97 103 103 110 113 114 111 112 115 113 110 114 99 96 88
55 57 57 58 64 64 66 63 64 61 67 70 71 70 68 63 59 62 73 79 84 95 117 102 103 103 103 101 102 104 106 108 107 112 110 108 111 111 109 111 121 109 92
55 55 52 57 62 61 62 60 58 64 71 76 76 71 68 62 56 61 61 73 85 88 104 109 104 105 109 109 104 104 101 102 100 105 113 113 113 114 116 115 116 126 121
53 50 52 56 58 61 58 54 61 67 76 81 76 73 72 66 60 65 63 65 77 91 97 115 110 107 106 104 105 104 102 100 102 105 108 111 118 115 114 118 119 116 118
53 50 51 50 54 58 52 55 62 70 77 79 77 77 77 74 76 76 65 71 75 84 95 104 112 104 104 102 104 104 101 102 98 103 107 110 114 119 121 123 127 117 103
51 53 52 47 53 54 52 57 64 72 78 78 78 77 80 82 83 83 78 77 84 89 93 102 106 105 104 102 100 106 109 100 104 99 105 105 106 108 113 121 120 120 105
50 51 46 47 54 50 53 60 67 76 80 81 79 79 82 86 86 88 80 87 91 94 96 99 105 106 105 104 107 106 107 106 104 103 95 96 99 105 107 107 113 116 110
50 50 47 51 55 51 56 65 72 78 82 83 83 84 86 85 87 86 88 90 93 97 99 99 104 106 106 107 105 105 108 108 109 93 98 108 97 107 105 104 113 110 114
49 47 47 54 50 54 61 69 75 79 82 83 84 89 90 87 89 87 90 91 89 91 92 95 102 104 108 106 106 107 104 106 108 104 104 112 96 106 105 107 113 118 114
47 46 48 53 54 56 66 73 77 79 82 84 87 88 89 89 86 95 93 94 90 91 88 88 98 101 100 101 99 102 105 107 104 98 96 109 96 104 102 107 112 113 106
44 46 50 55 56 62 70 77 80 82 84 86 85 86 87 87 90 94 96 96 94 91 88 94 96 98 97 95 95 96 97 100 102 98 93 96 78 93 96 106 103 106 100
43 47 51 56 59 64 72 77 83 83 85 86 84 84 83 88 91 93 95 92 98 96 99 95 93 90 88 87 89 87 91 97 97 96 72 86 91 77 79 84 98 90 95
Wind_Direction
354 353 351 352 348 345 342 340 340 338 336 334 332 330 329 327 326 323 322 318 314 306 300 298 287 278 275 266 254 243 236 224 215 201 177 170 167 166 163 163 161 154 156
356 353 352 350 346 344 342 341 339 337 335 333 330 330 327 326 323 320 317 315 311 308 303 296 294 291 282 270 266 255 245 236 221 213 199 184 178 174 171 168 169 168 166
356 352 351 348 346 344 343 341 339 337 334 333 330 329 327 323 321 318 317 315 311 306 302 300 295 293 285 283 271 256 247 241 228 218 209 197 189 183 182 179 178 177 176
354 350 349 347 346 345 343 341 338 334 332 331 328 327 326 323 320 318 317 316 315 316 311 309 305 300 293 291 284 256 250 247 237 224 219 211 198 193 189 193 188 190 186
352 350 348 347 346 344 344 341 339 337 333 332 330 329 327 323 323 323 323 318 315 312 310 306 301 297 294 291 289 276 252 251 251 236 226 220 211 201 199 197 200 197 199
353 352 349 348 347 344 345 344 341 341 339 335 330 328 325 324 323 323 319 318 315 313 310 307 303 300 295 294 292 297 290 272 256 249 232 223 220 209 206 203 205 204 208
353 352 351 348 348 347 349 347 344 340 338 337 332 327 329 326 323 320 317 316 315 313 311 309 306 300 296 292 293 292 289 289 281 234 231 225 221 221 210 211 208 208 207
353 354 352 351 351 350 348 346 344 341 340 339 334 329 323 323 321 313 317 316 315 314 312 309 306 303 298 294 292 289 288 288 280 289 246 233 223 221 217 214 213 207 204
356 352 352 352 350 350 346 344 344 341 338 337 338 332 324 317 312 319 311 316 311 312 310 311 308 305 300 296 293 290 287 283 286 282 278 260 230 226 223 220 216 213 210
353 354 355 352 349 349 348 347 345 341 338 333 335 335 330 322 319 309 312 308 313 310 311 311 309 307 302 297 293 289 289 286 286 288 278 277 256 229 226 223 223 219 216
356 355 353 350 347 346 346 346 344 342 340 337 335 331 328 324 321 315 301 305 309 311 309 309 307 309 304 300 296 291 290 287 285 283 286 277 286 243 232 228 226 222 221
352 352 350 349 348 346 346 348 346 344 342 340 336 332 328 324 320 316 310 306 303 307 310 308 307 310 308 302 298 294 291 289 285 282 279 280 274 278 245 233 229 225 222
349 350 350 348 347 347 350 349 347 344 344 339 335 332 330 324 321 318 313 307 304 304 308 310 310 309 309 306 300 296 292 288 285 281 278 275 276 268 267 254 231 229 225
348 350 349 348 349 351 349 349 348 346 343 341 337 333 330 326 324 319 315 311 304 304 306 305 310 309 311 308 302 298 293 289 285 281 280 273 267 269 268 255 246 231 226
347 348 349 351 353 351 349 347 347 346 347 343 341 340 337 334 331 325 320 317 311 301 299 305 304 308 308 308 305 299 295 290 285 281 280 276 269 266 266 261 253 227 228
347 348 351 353 351 349 349 348 348 350 347 346 344 341 342 344 344 341 331 322 315 308 297 304 302 303 304 306 303 299 297 292 287 283 279 277 272 268 266 262 257 251 226
348 349 353 352 350 350 349 350 352 348 345 341 340 340 342 343 344 344 339 330 320 314 304 299 303 305 300 301 301 301 299 295 290 287 281 277 272 267 262 257 254 249 241
349 351 351 351 351 352 354 354 349 347 341 339 340 342 342 343 342 341 339 335 326 317 312 300 303 303 301 302 300 298 299 296 293 290 283 280 273 267 262 255 254 251 245
348 349 349 353 353 354 356 352 347 343 341 340 341 340 340 341 339 338 338 335 332 324 314 308 302 304 302 303 301 300 297 297 296 292 287 280 274 266 260 254 245 248 248
348 348 351 355 354 355 354 350 345 342 341 341 341 340 339 337 335 335 335 334 331 327 320 309 304 303 302 304 303 300 296 299 294 295 289 282 276 268 262 255 248 245 249
350 350 354 356 355 355 353 349 345 342 341 340 340 340 338 335 334 333 333 331 329 326 322 314 303 301 301 302 301 301 295 296 294 293 291 285 278 270 262 258 248 244 245
350 352 356 355 352 354 352 347 345 343 342 341 339 339 338 337 335 334 332 330 328 325 319 314 307 298 297 299 300 299 297 294 290 296 292 281 281 268 260 255 247 243 242
351 354 355 352 356 355 352 348 346 345 343 342 341 339 338 338 336 335 333 330 328 326 320 314 305 300 294 297 298 296 298 293 288 289 292 275 282 268 260 254 249 242 241
353 354 354 353 355 356 352 348 347 346 344 343 342 341 339 339 339 335 333 330 329 326 322 318 309 301 296 295 297 296 295 294 290 290 291 273 280 267 262 254 248 244 241
354 354 353 353 354 351 350 348 347 346 345 344 345 344 342 341 340 337 335 332 330 327 325 317 310 303 297 295 296 298 297 296 290 290 291 276 277 276 265 250 246 241 239
355 353 352 353 353 350 348 347 347 346 345 345 346 346 346 343 341 340 338 336 328 328 323 318 313 308 302 298 298 301 298 295 288 285 292 281 277 279 262 250 242 239 238